QPF
0.03 0.02 0.02 0.01 0.01 0.02 0.03 0.03 0.04 0.03 0.03 0.03 0.03 0.03 0.05 0.05 0.05 0.05 0.06 0.06 0.05 0.04 0.04 0.04 0.03 0.03 0.04 0.04 0.05 0.05 0.06 0.06 0.07 0.08 0.11 0.12 0.11 0.13
0.01 0.01 0.01 0.01 0.01 0.01 0.02 0.02 0.03 0.03 0.03 0.03 0.03 0.04 0.04 0.04 0.05 0.05 0.05 0.06 0.05 0.04 0.04 0.04 0.03 0.02 0.02 0.02 0.02 0.03 0.03 0.04 0.04 0.03 0.05 0.07 0.08 0.10
0.00 0.01 0.00 0.00 0.00 0.00 0.01 0.02 0.03 0.03 0.03 0.04 0.04 0.06 0.04 0.03 0.04 0.04 0.05 0.05 0.06 0.04 0.03 0.03 0.03 0.02 0.02 0.02 0.02 0.02 0.03 0.03 0.04 0.03 0.02 0.03 0.05 0.06
0.00 0.00 0.01 0.01 0.00 0.00 0.01 0.01 0.02 0.02 0.02 0.03 0.04 0.06 0.04 0.02 0.02 0.03 0.04 0.05 0.06 0.06 0.03 0.03 0.03 0.02 0.02 0.02 0.02 0.01 0.01 0.02 0.03 0.03 0.02 0.02 0.03 0.04
0.00 0.00 0.00 0.00 0.00 0.01 0.01 0.01 0.01 0.01 0.02 0.03 0.05 0.05 0.05 0.03 0.01 0.02 0.03 0.03 0.03 0.04 0.03 0.03 0.02 0.01 0.01 0.01 0.01 0.01 0.00 0.01 0.01 0.02 0.03 0.02 0.02 0.02
0.00 0.00 0.00 0.00 0.00 0.00 0.01 0.01 0.01 0.01 0.01 0.02 0.02 0.03 0.04 0.04 0.02 0.02 0.02 0.02 0.02 0.02 0.01 0.01 0.01 0.01 0.01 0.01 0.01 0.01 0.01 0.01 0.01 0.01 0.01 0.02 0.02 0.02
0.00 0.00 0.00 0.00 0.00 0.00 0.00 0.00 0.01 0.01 0.01 0.01 0.01 0.01 0.01 0.01 0.01 0.01 0.01 0.01 0.01 0.01 0.01 0.01 0.01 0.01 0.01 0.01 0.01 0.01 0.01 0.01 0.01 0.02 0.01 0.01 0.02 0.03
0.00 0.00 0.00 0.00 0.00 0.00 0.00 0.00 0.00 0.00 0.00 0.00 0.00 0.01 0.01 0.01 0.01 0.01 0.01 0.01 0.01 0.01 0.01 0.01 0.00 0.00 0.01 0.00 0.01 0.01 0.01 0.00 0.01 0.01 0.01 0.01 0.01 0.02
0.00 0.00 0.00 0.00 0.00 0.00 0.00 0.00 0.00 0.00 0.00 0.00 0.00 0.00 0.00 0.00 0.01 0.00 0.00 0.00 0.00 0.01 0.01 0.01 0.01 0.00 0.00 0.00 0.00 0.01 0.01 0.00 0.00 0.01 0.01 0.01 0.02 0.02
0.00 0.00 0.00 0.00 0.00 0.00 0.00 0.00 0.00 0.01 0.01 0.00 0.00 0.00 0.00 0.01 0.01 0.01 0.00 0.00 0.00 0.00 0.01 0.01 0.01 0.01 0.00 0.00 0.00 0.00 0.00 0.01 0.01 0.01 0.01 0.01 0.02 0.02
0.00 0.00 0.00 0.00 0.00 0.00 0.00 0.00 0.00 0.00 0.01 0.00 0.00 0.00 0.00 0.01 0.01 0.01 0.00 0.00 0.00 0.00 0.01 0.01 0.01 0.01 0.01 0.01 0.00 0.00 0.00 0.01 0.01 0.01 0.01 0.01 0.02 0.03
0.00 0.00 0.00 0.00 0.00 0.00 0.00 0.00 0.00 0.00 0.00 0.00 0.00 0.00 0.00 0.00 0.00 0.01 0.00 0.00 0.00 0.00 0.01 0.01 0.01 0.01 0.01 0.01 0.01 0.00 0.00 0.01 0.01 0.01 0.01 0.01 0.02 0.02
0.00 0.00 0.00 0.00 0.00 0.00 0.00 0.00 0.00 0.00 0.00 0.00 0.00 0.00 0.00 0.00 0.00 0.00 0.00 0.00 0.00 0.01 0.01 0.01 0.01 0.01 0.01 0.01 0.01 0.01 0.01 0.01 0.01 0.01 0.01 0.01 0.02 0.02
0.00 0.00 0.00 0.00 0.00 0.00 0.00 0.00 0.00 0.00 0.00 0.00 0.00 0.00 0.00 0.00 0.00 0.00 0.00 0.00 0.00 0.00 0.00 0.00 0.01 0.01 0.01 0.02 0.02 0.01 0.00 0.00 0.01 0.01 0.01 0.01 0.02 0.02
0.00 0.00 0.00 0.00 0.00 0.00 0.00 0.00 0.00 0.00 0.00 0.00 0.00 0.00 0.00 0.00 0.00 0.00 0.00 0.00 0.00 0.00 0.00 0.00 0.01 0.01 0.01 0.01 0.00 0.01 0.00 0.00 0.00 0.00 0.01 0.01 0.01 0.01
0.00 0.00 0.00 0.00 0.00 0.00 0.00 0.00 0.00 0.00 0.00 0.00 0.00 0.00 0.00 0.00 0.00 0.00 0.00 0.00 0.00 0.00 0.00 0.00 0.00 0.00 0.00 0.00 0.00 0.00 0.00 0.00 0.00 0.00 0.00 0.00 0.00 0.01
0.00 0.00 0.00 0.00 0.00 0.00 0.00 0.00 0.00 0.00 0.00 0.00 0.00 0.00 0.00 0.00 0.00 0.00 0.00 0.00 0.00 0.00 0.00 0.00 0.00 0.00 0.00 0.00 0.00 0.00 0.00 0.00 0.00 0.00 0.00 0.00 0.00 0.00
0.00 0.00 0.00 0.00 0.00 0.00 0.00 0.00 0.00 0.00 0.00 0.00 0.00 0.00 0.00 0.00 0.00 0.00 0.00 0.00 0.00 0.00 0.00 0.00 0.00 0.00 0.00 0.00 0.00 0.00 0.00 0.00 0.00 0.00 0.00 0.00 0.00 0.00
0.00 0.00 0.00 0.00 0.00 0.00 0.00 0.00 0.00 0.00 0.00 0.00 0.00 0.00 0.00 0.00 0.00 0.00 0.00 0.00 0.00 0.00 0.00 0.00 0.00 0.00 0.00 0.00 0.00 0.00 0.00 0.00 0.00 0.00 0.00 0.00 0.00 0.00
0.00 0.00 0.00 0.00 0.00 0.00 0.00 0.00 0.00 0.00 0.00 0.00 0.00 0.00 0.00 0.00 0.00 0.00 0.00 0.00 0.00 0.00 0.00 0.00 0.00 0.00 0.00 0.00 0.00 0.00 0.00 0.00 0.00 0.00 0.00 0.00 0.00 0.00
0.00 0.00 0.00 0.00 0.00 0.00 0.00 0.00 0.00 0.00 0.00 0.00 0.00 0.00 0.00 0.00 0.00 0.00 0.00 0.00 0.00 0.00 0.00 0.00 0.00 0.00 0.00 0.00 0.00 0.00 0.00 0.00 0.00 0.00 0.00 0.00 0.00 0.00
0.00 0.00 0.00 0.00 0.00 0.00 0.00 0.00 0.00 0.00 0.00 0.00 0.00 0.00 0.00 0.00 0.00 0.00 0.00 0.00 0.00 0.00 0.00 0.00 0.00 0.00 0.00 0.00 0.00 0.00 0.00 0.00 0.00 0.00 0.00 0.00 0.00 0.00
0.00 0.00 0.00 0.00 0.00 0.00 0.00 0.00 0.00 0.00 0.00 0.00 0.00 0.00 0.00 0.00 0.00 0.00 0.00 0.00 0.00 0.00 0.00 0.00 0.00 0.00 0.00 0.00 0.00 0.00 0.00 0.00 0.00 0.00 0.00 0.00 0.00 0.00
MSLP
1012.46 1012.34 1012.27 1012.24 1012.23 1012.26 1012.31 1012.40 1012.51 1012.65 1012.81 1012.97 1013.12 1013.24 1013.31 1013.35 1013.35 1013.33 1013.33 1013.35 1013.44 1013.60 1013.82 1014.10 1014.40 1014.70 1014.98 1015.21 1015.39 1015.52 1015.63 1015.73 1015.85 1015.99 1016.16 1016.36 1016.57 1016.77
1012.75 1012.61 1012.50 1012.41 1012.35 1012.33 1012.37 1012.45 1012.59 1012.76 1012.97 1013.19 1013.39 1013.55 1013.66 1013.71 1013.72 1013.69 1013.66 1013.66 1013.72 1013.83 1014.02 1014.25 1014.52 1014.79 1015.04 1015.25 1015.41 1015.52 1015.61 1015.69 1015.77 1015.87 1016.01 1016.16 1016.32 1016.47
1013.08 1012.93 1012.79 1012.66 1012.56 1012.51 1012.52 1012.60 1012.75 1012.96 1013.21 1013.47 1013.72 1013.93 1014.07 1014.15 1014.17 1014.15 1014.11 1014.10 1014.12 1014.20 1014.35 1014.54 1014.76 1014.99 1015.20 1015.38 1015.51 1015.59 1015.65 1015.70 1015.75 1015.81 1015.89 1015.98 1016.08 1016.17
1013.39 1013.25 1013.10 1012.96 1012.84 1012.78 1012.77 1012.85 1013.00 1013.23 1013.51 1013.80 1014.09 1014.33 1014.51 1014.62 1014.67 1014.66 1014.63 1014.61 1014.61 1014.66 1014.77 1014.91 1015.08 1015.26 1015.42 1015.55 1015.64 1015.69 1015.72 1015.73 1015.73 1015.75 1015.77 1015.81 1015.85 1015.88
1013.65 1013.54 1013.41 1013.28 1013.16 1013.09 1013.09 1013.17 1013.33 1013.56 1013.85 1014.17 1014.47 1014.74 1014.95 1015.09 1015.16 1015.18 1015.16 1015.13 1015.13 1015.15 1015.21 1015.31 1015.42 1015.54 1015.64 1015.72 1015.76 1015.77 1015.75 1015.72 1015.69 1015.66 1015.64 1015.62 1015.60 1015.58
1013.83 1013.77 1013.67 1013.57 1013.48 1013.43 1013.44 1013.52 1013.69 1013.92 1014.21 1014.52 1014.83 1015.11 1015.34 1015.50 1015.59 1015.63 1015.63 1015.61 1015.60 1015.60 1015.62 1015.66 1015.72 1015.77 1015.81 1015.82 1015.81 1015.77 1015.72 1015.66 1015.59 1015.52 1015.46 1015.40 1015.34 1015.27
1013.91 1013.89 1013.84 1013.79 1013.74 1013.73 1013.77 1013.86 1014.03 1014.26 1014.53 1014.83 1015.13 1015.40 1015.63 1015.80 1015.91 1015.97 1015.99 1015.98 1015.97 1015.95 1015.94 1015.93 1015.93 1015.92 1015.89 1015.85 1015.79 1015.71 1015.63 1015.53 1015.44 1015.35 1015.26 1015.18 1015.09 1014.99
1013.86 1013.89 1013.91 1013.92 1013.93 1013.96 1014.03 1014.15 1014.32 1014.53 1014.78 1015.06 1015.33 1015.59 1015.81 1015.98 1016.11 1016.19 1016.22 1016.23 1016.22 1016.19 1016.16 1016.12 1016.06 1016.00 1015.92 1015.83 1015.73 1015.62 1015.51 1015.40 1015.29 1015.19 1015.09 1014.98 1014.88 1014.76
1013.71 1013.79 1013.86 1013.93 1014.01 1014.09 1014.20 1014.34 1014.51 1014.71 1014.93 1015.18 1015.42 1015.65 1015.86 1016.04 1016.18 1016.28 1016.34 1016.37 1016.37 1016.34 1016.30 1016.23 1016.15 1016.05 1015.93 1015.81 1015.68 1015.55 1015.42 1015.30 1015.20 1015.09 1014.99 1014.88 1014.76 1014.62
1013.45 1013.58 1013.71 1013.84 1013.97 1014.10 1014.25 1014.40 1014.57 1014.76 1014.97 1015.18 1015.40 1015.61 1015.81 1015.99 1016.14 1016.27 1016.36 1016.41 1016.44 1016.43 1016.39 1016.32 1016.23 1016.11 1015.98 1015.84 1015.69 1015.56 1015.43 1015.32 1015.21 1015.11 1015.00 1014.89 1014.75 1014.60
1013.13 1013.29 1013.46 1013.64 1013.82 1013.99 1014.16 1014.34 1014.51 1014.69 1014.88 1015.07 1015.27 1015.48 1015.68 1015.87 1016.05 1016.20 1016.33 1016.43 1016.49 1016.51 1016.49 1016.43 1016.35 1016.23 1016.10 1015.96 1015.82 1015.69 1015.57 1015.47 1015.37 1015.26 1015.15 1015.02 1014.87 1014.70
1012.75 1012.95 1013.16 1013.37 1013.58 1013.78 1013.97 1014.15 1014.33 1014.50 1014.69 1014.87 1015.07 1015.28 1015.50 1015.72 1015.93 1016.12 1016.30 1016.44 1016.54 1016.60 1016.61 1016.58 1016.52 1016.42 1016.31 1016.18 1016.06 1015.94 1015.83 1015.73 1015.63 1015.53 1015.41 1015.26 1015.08 1014.88
1012.35 1012.57 1012.80 1013.03 1013.26 1013.47 1013.67 1013.86 1014.04 1014.23 1014.41 1014.61 1014.83 1015.06 1015.31 1015.57 1015.82 1016.07 1016.29 1016.48 1016.62 1016.72 1016.77 1016.78 1016.74 1016.67 1016.58 1016.48 1016.37 1016.27 1016.17 1016.07 1015.97 1015.85 1015.71 1015.54 1015.34 1015.10
1011.92 1012.17 1012.41 1012.66 1012.89 1013.11 1013.31 1013.50 1013.69 1013.89 1014.09 1014.32 1014.57 1014.85 1015.14 1015.45 1015.75 1016.04 1016.31 1016.55 1016.73 1016.87 1016.95 1016.99 1016.98 1016.94 1016.87 1016.79 1016.71 1016.61 1016.52 1016.42 1016.30 1016.17 1016.01 1015.81 1015.57 1015.30
1011.46 1011.74 1012.00 1012.25 1012.48 1012.70 1012.90 1013.10 1013.31 1013.53 1013.77 1014.04 1014.34 1014.67 1015.02 1015.38 1015.73 1016.07 1016.38 1016.65 1016.86 1017.02 1017.13 1017.19 1017.20 1017.18 1017.14 1017.07 1017.00 1016.91 1016.81 1016.70 1016.57 1016.41 1016.23 1016.00 1015.74 1015.44
1010.99 1011.29 1011.57 1011.83 1012.06 1012.27 1012.48 1012.69 1012.92 1013.18 1013.47 1013.79 1014.15 1014.54 1014.95 1015.37 1015.77 1016.14 1016.48 1016.77 1017.00 1017.17 1017.29 1017.36 1017.39 1017.38 1017.34 1017.29 1017.21 1017.13 1017.02 1016.89 1016.73 1016.55 1016.34 1016.09 1015.80 1015.49
1010.48 1010.82 1011.12 1011.39 1011.63 1011.86 1012.08 1012.31 1012.58 1012.88 1013.22 1013.61 1014.03 1014.49 1014.96 1015.42 1015.86 1016.26 1016.62 1016.91 1017.15 1017.32 1017.43 1017.50 1017.53 1017.52 1017.49 1017.43 1017.35 1017.25 1017.12 1016.97 1016.79 1016.58 1016.33 1016.05 1015.75 1015.43
1009.95 1010.32 1010.66 1010.95 1011.21 1011.46 1011.70 1011.97 1012.28 1012.64 1013.04 1013.49 1013.99 1014.50 1015.02 1015.53 1016.00 1016.42 1016.78 1017.07 1017.29 1017.46 1017.56 1017.62 1017.64 1017.62 1017.58 1017.52 1017.43 1017.31 1017.16 1016.98 1016.76 1016.51 1016.23 1015.93 1015.61 1015.27
1009.40 1009.81 1010.18 1010.50 1010.80 1011.08 1011.37 1011.68 1012.04 1012.45 1012.92 1013.44 1013.99 1014.56 1015.13 1015.67 1016.16 1016.59 1016.95 1017.24 1017.45 1017.59 1017.69 1017.73 1017.74 1017.72 1017.67 1017.59 1017.49 1017.34 1017.17 1016.95 1016.69 1016.40 1016.08 1015.74 1015.38 1015.03
1008.82 1009.27 1009.68 1010.05 1010.38 1010.71 1011.05 1011.42 1011.83 1012.31 1012.84 1013.41 1014.02 1014.64 1015.25 1015.81 1016.32 1016.75 1017.11 1017.39 1017.59 1017.73 1017.81 1017.85 1017.85 1017.83 1017.77 1017.68 1017.55 1017.38 1017.17 1016.91 1016.61 1016.27 1015.90 1015.51 1015.11 1014.72
1008.22 1008.71 1009.16 1009.57 1009.96 1010.33 1010.73 1011.15 1011.63 1012.16 1012.75 1013.38 1014.04 1014.69 1015.33 1015.91 1016.43 1016.87 1017.23 1017.51 1017.71 1017.85 1017.93 1017.97 1017.97 1017.94 1017.88 1017.78 1017.63 1017.43 1017.18 1016.88 1016.52 1016.13 1015.69 1015.25 1014.79 1014.34
1007.59 1008.11 1008.60 1009.05 1009.49 1009.92 1010.37 1010.86 1011.40 1011.99 1012.63 1013.30 1014.00 1014.68 1015.34 1015.94 1016.47 1016.92 1017.29 1017.57 1017.78 1017.93 1018.02 1018.07 1018.08 1018.05 1017.98 1017.87 1017.70 1017.47 1017.18 1016.82 1016.41 1015.95 1015.46 1014.94 1014.42 1013.91
1006.92 1007.46 1007.98 1008.48 1008.97 1009.45 1009.97 1010.51 1011.11 1011.75 1012.43 1013.15 1013.87 1014.58 1015.25 1015.87 1016.41 1016.88 1017.25 1017.55 1017.78 1017.94 1018.05 1018.12 1018.14 1018.11 1018.04 1017.91 1017.72 1017.46 1017.13 1016.72 1016.25 1015.73 1015.17 1014.59 1014.00 1013.41
Thickness
5662 5663 5664 5666 5668 5671 5673 5675 5674 5672 5674 5680 5686 5692 5696 5699 5703 5706 5708 5711 5713 5715 5717 5718 5719 5721 5722 5723 5724 5724 5725 5725 5726 5726 5727 5727 5727 5727
5661 5661 5662 5663 5665 5668 5670 5673 5675 5674 5673 5677 5681 5686 5690 5695 5697 5700 5703 5706 5708 5710 5712 5714 5715 5716 5717 5718 5719 5720 5720 5721 5722 5722 5723 5723 5723 5724
5660 5661 5661 5662 5664 5665 5668 5670 5672 5673 5672 5673 5677 5681 5685 5688 5691 5694 5697 5700 5702 5704 5706 5708 5709 5710 5712 5713 5714 5715 5715 5716 5717 5718 5718 5719 5719 5719
5659 5660 5660 5662 5662 5663 5665 5667 5668 5670 5671 5670 5672 5675 5679 5682 5685 5688 5690 5693 5696 5698 5700 5702 5703 5704 5706 5707 5708 5710 5710 5711 5712 5712 5713 5713 5714 5714
5660 5659 5660 5660 5660 5661 5662 5664 5665 5667 5667 5667 5667 5669 5672 5675 5678 5681 5684 5686 5689 5691 5693 5695 5697 5698 5700 5701 5702 5704 5705 5705 5706 5706 5707 5707 5708 5708
5661 5660 5660 5659 5659 5659 5660 5661 5661 5662 5662 5662 5662 5663 5666 5668 5671 5672 5674 5677 5680 5684 5686 5688 5690 5691 5693 5694 5696 5697 5698 5699 5699 5700 5700 5701 5701 5702
5661 5661 5660 5660 5660 5660 5660 5659 5659 5658 5657 5657 5657 5658 5660 5662 5664 5666 5667 5669 5672 5674 5677 5680 5682 5684 5685 5687 5688 5690 5691 5692 5692 5693 5693 5693 5694 5694
5661 5661 5661 5661 5661 5661 5661 5660 5659 5656 5655 5654 5654 5654 5656 5658 5659 5660 5661 5663 5664 5667 5669 5671 5674 5675 5677 5679 5680 5682 5683 5683 5684 5684 5685 5685 5686 5687
5662 5661 5661 5661 5660 5659 5659 5659 5658 5657 5657 5655 5653 5653 5654 5656 5656 5656 5656 5657 5658 5660 5662 5663 5665 5667 5669 5671 5672 5673 5673 5674 5675 5675 5676 5676 5677 5678
5662 5661 5660 5660 5659 5657 5656 5655 5654 5654 5655 5654 5653 5653 5654 5654 5653 5653 5653 5652 5652 5654 5655 5655 5657 5658 5661 5662 5663 5663 5663 5664 5665 5665 5666 5666 5667 5668
5662 5661 5660 5659 5659 5658 5654 5652 5651 5652 5652 5652 5652 5651 5651 5651 5650 5649 5647 5647 5647 5647 5648 5648 5649 5650 5652 5653 5653 5653 5654 5654 5654 5655 5656 5656 5657 5658
5660 5660 5660 5659 5659 5657 5653 5651 5649 5649 5649 5648 5647 5647 5647 5647 5646 5645 5644 5643 5641 5641 5641 5641 5641 5642 5642 5643 5644 5644 5645 5645 5645 5645 5645 5646 5647 5647
5659 5658 5659 5659 5658 5656 5654 5651 5650 5648 5646 5644 5642 5641 5641 5641 5640 5640 5640 5639 5637 5636 5636 5635 5634 5633 5632 5633 5634 5634 5634 5634 5634 5635 5635 5635 5636 5636
5659 5658 5657 5657 5655 5654 5652 5650 5649 5646 5642 5639 5637 5636 5635 5635 5635 5634 5634 5633 5632 5631 5629 5629 5627 5626 5625 5624 5625 5625 5624 5624 5623 5623 5623 5624 5624 5624
5657 5656 5655 5653 5652 5650 5649 5647 5644 5640 5637 5635 5633 5631 5630 5630 5629 5628 5627 5626 5624 5623 5622 5621 5619 5618 5617 5616 5616 5614 5613 5613 5612 5612 5612 5612 5612 5612
5651 5650 5649 5647 5645 5644 5642 5640 5638 5636 5634 5632 5629 5626 5624 5623 5621 5620 5618 5617 5615 5613 5612 5611 5611 5610 5609 5607 5605 5604 5602 5601 5601 5600 5600 5600 5600 5599
5644 5641 5639 5637 5636 5634 5633 5632 5631 5629 5627 5625 5622 5620 5617 5615 5613 5611 5609 5607 5605 5603 5601 5601 5601 5600 5599 5597 5596 5594 5592 5590 5589 5589 5588 5589 5588 5587
5638 5635 5634 5633 5632 5630 5628 5625 5623 5622 5620 5618 5616 5613 5610 5608 5604 5602 5600 5597 5595 5592 5590 5589 5588 5589 5588 5587 5585 5583 5581 5579 5578 5577 5576 5577 5579 5577
5632 5632 5630 5629 5627 5625 5622 5620 5618 5615 5613 5611 5608 5606 5603 5599 5596 5593 5590 5587 5585 5582 5580 5578 5576 5575 5574 5574 5573 5572 5570 5569 5567 5566 5565 5565 5566 5568
5627 5627 5626 5624 5621 5619 5617 5614 5611 5608 5605 5603 5600 5597 5594 5591 5587 5584 5581 5578 5575 5572 5570 5568 5566 5564 5562 5561 5561 5560 5558 5556 5555 5555 5555 5555 5556 5557
5622 5621 5620 5618 5616 5613 5611 5608 5605 5602 5599 5595 5592 5589 5586 5583 5579 5575 5572 5570 5566 5563 5561 5558 5557 5555 5552 5550 5549 5550 5548 5545 5543 5541 5542 5543 5545 5548
5617 5615 5613 5612 5610 5607 5604 5601 5597 5594 5591 5587 5584 5581 5577 5574 5571 5567 5564 5560 5557 5554 5552 5549 5547 5545 5542 5540 5539 5539 5538 5536 5533 5530 5528 5528 5527 5531
5609 5608 5606 5604 5602 5600 5597 5594 5591 5588 5584 5581 5577 5573 5569 5565 5562 5559 5555 5552 5548 5545 5542 5539 5537 5534 5532 5529 5527 5527 5526 5526 5524 5523 5521 5518 5516 5516